GW4359 Weather Reports


time (UTC)temp
F
wind
direction
speed
knots
gust
knots
rain 1hr
in
rain 24hr
in
rain mn
in
humidity
%
barometer
mb
20260510201508 79 114 0.0 3.5 0.00 0.00 0.00 53 1018.8
20260510200012 79 146 0.0 5.2 0.00 0.00 0.00 52 1018.9
20260510194507 78 270 2.6 4.3 0.00 0.00 0.00 50 1018.9
20260510193007 78 266 0.9 4.3 0.00 0.00 0.00 52 1019.0
20260510191504 78 157 0.9 6.1 0.00 0.00 0.00 52 1019.1
20260510190001 78 172 0.0 4.3 0.00 0.00 0.00 52 1019.1
20260510184500 77 149 0.9 6.1 0.00 0.00 0.00 53 1019.1
20260510183104 78 163 3.5 7.0 0.00 0.00 0.00 57 1019.3
20260510181601 77 108 0.9 4.3 0.00 0.00 0.00 55 1019.4
20260510180055 76 136 2.6 4.3 0.00 0.00 0.00 59 1019.5
20260510174554 76 171 1.7 7.8 0.00 0.00 0.00 62 1019.7
20260510173051 76 172 2.6 7.0 0.00 0.00 0.00 64 1019.9
20260510171552 75 285 0.0 6.1 0.00 0.00 0.00 65 1020.0
20260510170054 75 211 1.7 6.1 0.00 0.00 0.00 69 1020.1
20260510150005 65 198 0.0 3.5 0.00 0.00 0.00 100 1020.3
20260510144501 64 179 0.9 2.6 0.00 0.00 0.00 100 1020.2
20260510143056 63 180 0.9 3.5 0.00 0.00 0.00 100 1020.2
20260510141557 62 183 0.9 3.5 0.00 0.00 0.00 100 1020.1
20260510140054 62 186 0.9 2.6 0.00 0.00 0.00 100 1020.1
20260510134543 61 186 0.9 2.6 0.00 0.00 0.00 100 1020.2
20260510133038 60 201 0.0 3.5 0.00 0.00 0.00 100 1020.1
20260510131534 60 237 0.0 2.6 0.00 0.00 0.00 100 1020.1
20260510130030 59 239 0.0 1.7 0.00 0.00 0.00 100 1020.0
20260510124626 58 239 0.0 0.9 0.00 0.00 0.00 100 1020.0
20260510123021 57 240 0.0 0.9 0.00 0.00 0.00 100 1019.9
20260510121517 56 240 0.0 0.0 0.00 0.00 0.00 100 1019.7
20260510120017 55 240 0.0 0.0 0.00 0.00 0.00 100 1019.2
20260510114509 54 240 0.0 0.0 0.00 0.00 0.00 100 1019.0
20260510113004 53 240 0.0 0.0 0.00 0.00 0.00 100 1018.7
20260510111600 53 240 0.0 0.0 0.00 0.00 0.00 100 1018.4
20260510110058 52 240 0.0 0.0 0.00 0.00 0.00 100 1018.2
20260510104552 52 240 0.0 0.0 0.00 0.00 0.00 100 1017.9
20260510103057 52 240 0.0 0.0 0.00 0.00 0.00 100 1017.8
20260510101547 53 240 0.0 0.0 0.00 0.00 0.00 100 1017.7
20260510100040 53 240 0.0 0.0 0.00 0.00 0.00 100 1017.6
20260510094541 53 240 0.0 0.0 0.00 0.00 0.00 100 1017.4
20260510093030 53 240 0.0 0.0 0.00 0.00 0.00 100 1017.2
20260510091524 53 240 0.0 0.0 0.00 0.00 0.00 100 1017.3
20260510090021 52 240 0.0 0.0 0.00 0.00 0.00 100 1017.4
20260510084516 52 240 0.0 0.0 0.00 0.00 0.00 100 1017.4
20260510083012 53 240 0.0 0.0 0.00 0.00 0.00 100 1017.2
20260510081519 54 240 0.0 0.0 0.00 0.00 0.00 100 1017.0
20260510080004 53 240 0.0 0.0 0.00 0.00 0.00 100 1016.8
20260510074600 54 240 0.0 0.0 0.00 0.00 0.00 100 1016.7
20260510073104 54 240 0.0 0.0 0.00 0.00 0.00 100 1016.5
20260510071550 54 240 0.0 0.0 0.00 0.00 0.00 100 1016.6
20260510070047 55 240 0.0 0.0 0.00 0.00 0.00 100 1016.6
20260510064541 55 240 0.0 0.0 0.00 0.00 0.00 100 1016.7
20260510063038 55 240 0.0 0.0 0.00 0.00 0.00 100 1016.6
20260510061533 55 240 0.0 0.0 0.00 0.00 0.00 100 1016.6
20260510060030 56 240 0.0 0.0 0.00 0.00 0.00 100 1016.7
20260510054526 57 240 0.0 0.0 0.00 0.00 0.00 100 1016.6
20260510053020 57 240 0.0 0.0 0.00 0.00 0.00 100 1016.8
20260510051527 58 240 0.0 0.0 0.00 0.00 0.00 100 1016.8
20260510050011 57 240 0.0 0.0 0.00 0.00 0.00 100 1016.8
20260510044509 57 240 0.0 0.0 0.00 0.00 0.00 100 1016.8
20260510043010 58 240 0.0 1.7 0.00 0.00 0.00 100 1016.8
20260510041635 57 277 0.0 0.9 0.00 0.00 0.00 100 1016.8
20260510040053 57 293 0.0 0.0 0.00 0.00 0.00 100 1017.0
20260510034556 57 293 0.0 1.7 0.00 0.00 0.00 100 1017.0
20260510033051 58 293 0.0 0.0 0.00 0.00 0.00 100 1016.9
20260510031550 57 293 0.0 0.0 0.00 0.00 0.00 100 1016.8
20260510030038 58 293 0.0 0.9 0.00 0.00 0.00 100 1016.8
20260510024536 58 293 0.0 0.0 0.00 0.00 0.00 100 1016.5
20260510023028 59 293 0.0 0.0 0.00 0.00 0.00 100 1016.3
20260510021529 59 293 0.0 0.9 0.00 0.00 0.00 100 1016.0
20260510020020 60 293 0.0 0.9 0.00 0.00 0.00 100 1015.6
20260510014516 60 293 0.0 0.0 0.00 0.00 0.00 28 1015.1
20260510013013 62 294 0.0 0.0 0.00 0.00 0.00 43 1014.8
20260510011506 63 293 0.0 0.0 0.00 0.00 0.00 59 1014.6
20260510010002 66 293 0.0 0.0 0.00 0.00 0.00 67 1014.3
20260510004604 69 293 0.0 0.0 0.00 0.00 0.00 68 1014.1
20260510003054 72 293 0.0 0.0 0.00 0.00 0.00 70 1013.9
20260510001549 75 293 0.0 0.0 0.00 0.00 0.00 65 1013.7
20260510000046 76 293 0.0 2.6 0.00 0.00 0.00 64 1013.7
20260509234540 76 265 0.0 1.7 0.00 0.00 0.00 65 1013.5
20260509233036 75 265 0.9 2.6 0.00 0.00 0.00 67 1013.7
20260509231531 76 267 0.9 2.6 0.00 0.00 0.00 64 1013.7
20260509230027 75 266 0.0 1.7 0.00 0.00 0.00 68 1013.6
20260509224522 75 266 0.9 1.7 0.00 0.00 0.00 67 1013.6
20260509223020 75 243 2.6 5.2 0.00 0.00 0.00 62 1013.5
20260509221514 75 236 0.9 4.3 0.00 0.00 0.00 63 1013.4
20260509220009 75 267 2.6 6.1 0.00 0.00 0.00 59 1013.2
20260509214505 76 281 2.6 3.5 0.00 0.00 0.00 61 1013.0
20260509213002 76 229 2.6 6.1 0.00 0.00 0.00 59 1013.1
20260509211600 75 336 2.6 7.0 0.00 0.00 0.00 61 1013.1
20260509204548 75 270 5.2 8.7 0.00 0.00 0.00 59 1013.4
20260509203043 75 285 1.7 4.3 0.00 0.00 0.00 62 1013.7